Weather History for Houston Clover, TX

Change the Weather History Date:

Wednesday, April 16, 2014

  Actual Average (KHOU) Record (KHOU)
Temperature  
Mean Temperature 54 °F 70 °F  
Max Temperature 66 °F 80 °F 92 °F (1987)
Min Temperature 42 °F 59 °F 38 °F (1983)
Degree Days  
Heating Degree Days 11 1  
Month to date heating degree days 28  
Since 1 July heating degree days 1357  
Cooling Degree Days 0 6  
Month to date cooling degree days 75  
Year to date cooling degree days 184  
Growing Degree Days 4 (Base 50)    
Moisture  
Dew Point 44 °F    
Average Humidity 64    
Maximum Humidity 82    
Minimum Humidity 44    
Precipitation  
Precipitation 0.00 in 0.11 in 4.70 in (1912)
Month to date precipitation 1.63  
Year to date precipitation 11.62  
Sea Level Pressure  
Sea Level Pressure 30.13 in    
Wind  
Wind Speed 5 mph (ESE)    
Max Wind Speed 15 mph    
Max Gust Speed 21 mph    
Visibility 10 miles    
Events      
T = Trace of Precipitation, MM = Missing Value Source: NWS Daily Summary

Daily Weather History Graph

Daily Weather History Graph

Search for Another Location

Airport:

Trip Planner

Search our weather history database for the weather conditions in past years. The results will help you decide how hot, cold, wet, or windy it might be!

Date:

Astronomy

Apr. 16, 2014 Rise Set
Actual Time 6:53 AM CDT 7:48 PM CDT
Civil Twilight 6:29 AM CDT 8:12 PM CDT
Nautical Twilight 6:00 AM CDT 8:41 PM CDT
Astronomical Twilight 5:30 AM CDT 9:11 PM CDT
Moon 9:26 PM CDT (4/16) 7:46 AM CDT (4/16)
Length of Visible Light 13h 43m
Length of Day
12h 54m
Full, 98% of the Moon is Illuminated
Apr 16
Full
Apr 22
Last Quarter
Apr 29
New
May 6
First Quarter
May 14
Full

Hourly Weather History & Observations

Time (CDT) Temp. Windchill Dew Point Humidity Pressure Visibility Wind Dir Wind Speed Gust Speed Precip Events Conditions
12:53 AM 44.1 °F - 37.9 °F 79% 30.19 in 10.0 mi Calm Calm - N/A   Clear
1:53 AM 45.0 °F - 37.9 °F 76% 30.18 in 10.0 mi Calm Calm - N/A   Clear
2:53 AM 43.0 °F 41.3 °F 37.0 °F 80% 30.17 in 10.0 mi ENE 3.5 mph - N/A   Clear
3:53 AM 43.0 °F - 37.0 °F 80% 30.17 in 10.0 mi Calm Calm - N/A   Clear
4:53 AM 42.1 °F - 37.0 °F 82% 30.16 in 10.0 mi Calm Calm - N/A   Clear
5:53 AM 42.1 °F - 37.0 °F 82% 30.16 in 10.0 mi Calm Calm - N/A   Clear
6:53 AM 43.0 °F 41.3 °F 37.0 °F 80% 30.17 in 10.0 mi NE 3.5 mph - N/A   Clear
7:53 AM 50.0 °F - 43.0 °F 77% 30.18 in 10.0 mi NE 4.6 mph - N/A   Clear
8:53 AM 57.0 °F - 45.0 °F 64% 30.19 in 10.0 mi East 9.2 mph - N/A   Clear
9:53 AM 59.0 °F - 44.1 °F 58% 30.19 in 10.0 mi East 11.5 mph - N/A   Clear
10:53 AM 62.1 °F - 39.9 °F 44% 30.20 in 10.0 mi SE 10.4 mph 19.6 mph N/A   Mostly Cloudy
11:53 AM 62.1 °F - 41.0 °F 46% 30.19 in 10.0 mi ESE 12.7 mph - N/A   Scattered Clouds
12:53 PM 63.0 °F - 41.0 °F 45% 30.16 in 10.0 mi East 15.0 mph 20.7 mph N/A   Clear
1:53 PM 64.0 °F - 43.0 °F 46% 30.13 in 10.0 mi SE 11.5 mph - N/A   Scattered Clouds
2:53 PM 66.0 °F - 45.0 °F 47% 30.11 in 10.0 mi SSE 10.4 mph - N/A   Mostly Cloudy
3:53 PM 64.9 °F - 46.0 °F 50% 30.08 in 10.0 mi SSE 13.8 mph 20.7 mph N/A   Mostly Cloudy
4:53 PM 66.0 °F - 46.9 °F 50% 30.06 in 10.0 mi SSE 12.7 mph - N/A   Partly Cloudy
5:53 PM 64.9 °F - 48.0 °F 54% 30.05 in 10.0 mi SE 13.8 mph - N/A   Overcast
6:53 PM 64.0 °F - 48.9 °F 58% 30.05 in 10.0 mi ESE 10.4 mph - N/A   Overcast
7:53 PM 63.0 °F - 48.9 °F 60% 30.05 in 10.0 mi SE 6.9 mph - N/A   Overcast
8:53 PM 61.0 °F - 50.0 °F 67% 30.05 in 10.0 mi ESE 4.6 mph - N/A   Clear
9:53 PM 60.1 °F - 51.1 °F 72% 30.05 in 10.0 mi ESE 8.1 mph - N/A   Clear
10:53 PM 60.1 °F - 52.0 °F 75% 30.06 in 10.0 mi ESE 6.9 mph - N/A   Clear
11:53 PM 60.1 °F - 52.0 °F 75% 30.06 in 10.0 mi ESE 6.9 mph - N/A   Clear